Location: Granada
(37.1830°N, 3.6000°W)
Time: 06:33:24
(UTC+02:00)

Iridium 70 - Visible Passes

Search period start: 21 April 2014 00:00
Search period end: 01 May 2014 00:00
Orbit: 776 x 779 km, 86.4° (Epoch: 20 April)

Date Brightness Start Highest point End Pass type
(mag) Time Alt. Az. Time Alt. Az. Time Alt. Az.
21 Apr 5.5 22:45:13 10° N 22:50:22 61° E 22:51:27 50° SE visible
22 Apr 8.1 00:28:05 10° NW 00:30:28 13° WNW 00:31:57 12° W visible
22 Apr 6.3 22:12:06 10° NNE 22:16:44 32° E 22:18:28 26° ESE visible
22 Apr 7.4 23:53:04 10° NNW 23:57:16 25° W 23:58:58 21° WSW visible
23 Apr 7.1 21:39:35 10° NE 21:42:58 17° ENE 21:45:30 13° ESE visible
23 Apr 6.3 23:18:57 10° NNW 23:23:56 47° W 23:26:00 31° SW visible
24 Apr 5.4 22:45:16 10° N 22:50:29 90° E 22:53:04 31° S visible
25 Apr 5.8 22:11:54 10° N 22:16:56 47° E 22:20:10 21° SSE visible
25 Apr 8.0 23:53:53 10° NW 23:57:11 17° W 00:00:29 10° WSW visible
26 Apr 6.6 21:38:59 10° NNE 21:43:14 25° E 21:47:17 11° SE visible
26 Apr 7.1 23:19:21 10° NNW 23:23:56 32° W 23:27:47 13° SW visible
27 Apr 5.9 22:45:25 10° N 22:50:33 62° W 22:54:57 14° SSW visible
28 Apr 5.5 22:11:51 10° N 22:17:03 70° E 22:22:08 11° S visible
28 Apr 8.3 23:55:26 10° WNW 23:57:03 11° WNW 23:58:41 10° W visible
29 Apr 6.1 21:38:39 10° NNE 21:43:26 36° E 21:48:12 10° SSE visible
29 Apr 7.7 23:19:56 10° NNW 23:23:52 22° W 23:27:48 10° SW visible
30 Apr 6.7 22:45:42 10° NNW 22:50:34 41° W 22:55:24 10° SSW visible
